QPF
0.04 0.05 0.07 0.09 0.08 0.08 0.08 0.07 0.07 0.09 0.09 0.07 0.07 0.08 0.11 0.14 0.10 0.05 0.04 0.04 0.04 0.05 0.06 0.09 0.09 0.06 0.05 0.05 0.05 0.06 0.05 0.05 0.04 0.03 0.02 0.02 0.03 0.04 0.05 0.06 0.06 0.06 0.07
0.02 0.03 0.05 0.07 0.08 0.08 0.06 0.06 0.07 0.08 0.08 0.07 0.07 0.06 0.07 0.10 0.12 0.08 0.04 0.03 0.03 0.04 0.03 0.04 0.07 0.07 0.07 0.07 0.07 0.06 0.05 0.05 0.04 0.03 0.03 0.03 0.03 0.05 0.06 0.07 0.07 0.07 0.07
0.00 0.01 0.03 0.05 0.06 0.07 0.06 0.06 0.07 0.07 0.07 0.07 0.07 0.07 0.06 0.07 0.08 0.07 0.06 0.04 0.03 0.03 0.03 0.03 0.03 0.03 0.03 0.04 0.04 0.05 0.05 0.04 0.04 0.04 0.03 0.03 0.05 0.06 0.06 0.07 0.07 0.08 0.08
0.01 0.01 0.02 0.03 0.04 0.05 0.07 0.08 0.10 0.12 0.10 0.07 0.07 0.07 0.07 0.07 0.07 0.06 0.06 0.04 0.03 0.04 0.04 0.04 0.03 0.02 0.02 0.02 0.03 0.04 0.04 0.04 0.04 0.03 0.03 0.03 0.03 0.03 0.05 0.06 0.07 0.06 0.05
0.01 0.02 0.02 0.02 0.02 0.05 0.07 0.05 0.05 0.06 0.07 0.06 0.05 0.05 0.06 0.07 0.07 0.06 0.04 0.04 0.04 0.04 0.04 0.04 0.04 0.03 0.03 0.03 0.04 0.05 0.06 0.05 0.05 0.03 0.03 0.03 0.03 0.03 0.03 0.02 0.03 0.03 0.03
0.01 0.02 0.02 0.01 0.02 0.03 0.03 0.02 0.02 0.04 0.04 0.05 0.04 0.04 0.05 0.05 0.06 0.06 0.05 0.05 0.04 0.03 0.02 0.03 0.04 0.02 0.02 0.02 0.03 0.04 0.06 0.07 0.06 0.06 0.05 0.04 0.04 0.03 0.03 0.02 0.03 0.04 0.04
0.01 0.02 0.02 0.02 0.02 0.03 0.02 0.01 0.02 0.03 0.03 0.03 0.03 0.03 0.03 0.04 0.05 0.06 0.06 0.07 0.04 0.02 0.01 0.01 0.02 0.02 0.01 0.01 0.02 0.02 0.03 0.05 0.09 0.10 0.09 0.06 0.05 0.03 0.03 0.03 0.03 0.04 0.04
0.00 0.00 0.01 0.01 0.01 0.02 0.02 0.02 0.02 0.02 0.02 0.02 0.03 0.04 0.03 0.03 0.04 0.04 0.05 0.05 0.04 0.02 0.02 0.01 0.02 0.02 0.01 0.01 0.01 0.01 0.01 0.02 0.04 0.07 0.08 0.07 0.05 0.04 0.04 0.04 0.03 0.04 0.04
0.00 0.00 0.01 0.01 0.01 0.01 0.02 0.02 0.02 0.02 0.01 0.02 0.03 0.04 0.03 0.03 0.04 0.04 0.03 0.04 0.03 0.02 0.01 0.01 0.01 0.01 0.01 0.02 0.01 0.01 0.01 0.01 0.02 0.03 0.04 0.04 0.04 0.04 0.04 0.05 0.04 0.04 0.04
0.00 0.00 0.01 0.01 0.01 0.01 0.02 0.01 0.01 0.01 0.02 0.03 0.03 0.03 0.03 0.03 0.03 0.03 0.03 0.04 0.03 0.01 0.01 0.00 0.00 0.00 0.01 0.01 0.01 0.00 0.00 0.01 0.02 0.02 0.02 0.03 0.03 0.04 0.05 0.06 0.04 0.04 0.04
0.01 0.01 0.01 0.01 0.01 0.01 0.01 0.01 0.01 0.01 0.02 0.02 0.03 0.03 0.03 0.04 0.04 0.04 0.04 0.04 0.03 0.02 0.01 0.00 0.00 0.00 0.01 0.01 0.01 0.00 0.00 0.00 0.01 0.01 0.02 0.02 0.02 0.03 0.04 0.05 0.05 0.04 0.04
0.02 0.01 0.01 0.01 0.01 0.01 0.01 0.01 0.01 0.01 0.02 0.02 0.02 0.03 0.03 0.04 0.04 0.04 0.05 0.04 0.03 0.02 0.02 0.01 0.01 0.00 0.01 0.01 0.01 0.01 0.00 0.00 0.00 0.00 0.01 0.01 0.02 0.03 0.04 0.04 0.04 0.04 0.04
0.02 0.01 0.01 0.01 0.01 0.01 0.01 0.01 0.01 0.02 0.02 0.03 0.03 0.02 0.02 0.02 0.03 0.04 0.06 0.05 0.03 0.03 0.02 0.01 0.01 0.01 0.01 0.01 0.02 0.02 0.01 0.01 0.01 0.00 0.00 0.00 0.01 0.02 0.02 0.02 0.04 0.05 0.06
0.01 0.01 0.01 0.01 0.01 0.01 0.01 0.01 0.01 0.01 0.03 0.05 0.04 0.03 0.03 0.03 0.03 0.04 0.05 0.05 0.03 0.03 0.03 0.02 0.01 0.01 0.01 0.01 0.02 0.02 0.02 0.02 0.01 0.00 0.00 0.00 0.01 0.01 0.02 0.02 0.03 0.03 0.04
0.01 0.00 0.01 0.01 0.01 0.01 0.01 0.01 0.01 0.01 0.03 0.05 0.06 0.04 0.03 0.03 0.03 0.03 0.03 0.03 0.03 0.03 0.03 0.03 0.03 0.01 0.01 0.02 0.02 0.03 0.04 0.02 0.01 0.01 0.01 0.01 0.01 0.01 0.02 0.02 0.03 0.03 0.04
0.02 0.01 0.01 0.01 0.01 0.01 0.01 0.01 0.01 0.01 0.02 0.04 0.07 0.07 0.05 0.04 0.03 0.03 0.03 0.03 0.02 0.02 0.02 0.03 0.03 0.02 0.02 0.02 0.02 0.03 0.04 0.03 0.02 0.01 0.01 0.02 0.02 0.02 0.02 0.03 0.05 0.04 0.04
0.03 0.01 0.01 0.01 0.01 0.01 0.01 0.01 0.01 0.01 0.02 0.03 0.06 0.09 0.09 0.06 0.05 0.03 0.03 0.03 0.02 0.01 0.01 0.02 0.02 0.01 0.02 0.03 0.03 0.03 0.03 0.03 0.03 0.03 0.03 0.02 0.02 0.02 0.02 0.02 0.04 0.04 0.04
0.03 0.01 0.01 0.01 0.01 0.01 0.01 0.01 0.01 0.01 0.02 0.03 0.05 0.08 0.09 0.09 0.07 0.04 0.01 0.02 0.02 0.02 0.01 0.02 0.02 0.02 0.02 0.03 0.04 0.04 0.03 0.03 0.03 0.03 0.02 0.01 0.01 0.01 0.01 0.01 0.03 0.06 0.06
0.04 0.02 0.01 0.01 0.01 0.01 0.01 0.01 0.01 0.01 0.02 0.03 0.04 0.06 0.08 0.09 0.08 0.06 0.02 0.01 0.01 0.02 0.01 0.01 0.02 0.03 0.03 0.02 0.03 0.03 0.02 0.01 0.01 0.01 0.01 0.01 0.01 0.00 0.00 0.00 0.01 0.05 0.06
0.03 0.01 0.01 0.01 0.01 0.01 0.00 0.01 0.00 0.01 0.01 0.03 0.03 0.04 0.06 0.08 0.09 0.08 0.04 0.01 0.01 0.01 0.02 0.02 0.02 0.02 0.03 0.03 0.03 0.03 0.03 0.02 0.01 0.00 0.01 0.01 0.00 0.00 0.00 0.00 0.00 0.03 0.05
0.04 0.02 0.02 0.01 0.01 0.01 0.00 0.00 0.00 0.00 0.01 0.02 0.03 0.04 0.04 0.06 0.07 0.08 0.07 0.02 0.01 0.01 0.01 0.02 0.02 0.02 0.03 0.04 0.03 0.02 0.03 0.03 0.02 0.01 0.00 0.00 0.01 0.01 0.00 0.00 0.00 0.02 0.04
0.03 0.02 0.02 0.02 0.01 0.00 0.01 0.01 0.00 0.00 0.00 0.01 0.02 0.03 0.04 0.04 0.05 0.06 0.08 0.05 0.02 0.01 0.01 0.01 0.02 0.02 0.03 0.03 0.03 0.03 0.03 0.03 0.02 0.01 0.01 0.00 0.01 0.01 0.01 0.00 0.00 0.02 0.03
0.04 0.03 0.02 0.02 0.01 0.01 0.02 0.02 0.01 0.01 0.00 0.00 0.01 0.03 0.03 0.04 0.04 0.04 0.06 0.06 0.04 0.02 0.01 0.01 0.01 0.01 0.02 0.02 0.03 0.03 0.02 0.02 0.02 0.02 0.01 0.01 0.00 0.01 0.01 0.01 0.01 0.02 0.04
0.03 0.03 0.02 0.02 0.02 0.02 0.02 0.02 0.02 0.02 0.01 0.01 0.01 0.02 0.03 0.03 0.04 0.03 0.04 0.04 0.04 0.03 0.01 0.01 0.01 0.01 0.01 0.02 0.02 0.03 0.03 0.02 0.02 0.02 0.02 0.02 0.01 0.01 0.01 0.01 0.01 0.03 0.06
0.02 0.02 0.03 0.02 0.02 0.01 0.02 0.02 0.02 0.02 0.01 0.01 0.01 0.01 0.02 0.03 0.04 0.04 0.03 0.03 0.03 0.03 0.02 0.02 0.01 0.01 0.01 0.02 0.03 0.03 0.03 0.03 0.02 0.02 0.02 0.02 0.03 0.02 0.02 0.01 0.02 0.04 0.08
0.02 0.02 0.03 0.03 0.03 0.02 0.02 0.02 0.02 0.02 0.02 0.01 0.01 0.01 0.01 0.02 0.04 0.04 0.04 0.03 0.02 0.02 0.02 0.02 0.01 0.01 0.01 0.02 0.03 0.03 0.04 0.02 0.02 0.02 0.02 0.02 0.02 0.03 0.03 0.02 0.02 0.05 0.10
MSLP
1017.46 1017.86 1018.20 1018.45 1018.63 1018.75 1018.83 1018.89 1018.95 1019.04 1019.16 1019.32 1019.51 1019.72 1019.96 1020.19 1020.41 1020.59 1020.70 1020.75 1020.71 1020.61 1020.45 1020.25 1020.04 1019.83 1019.64 1019.47 1019.31 1019.16 1018.99 1018.81 1018.59 1018.35 1018.10 1017.87 1017.67 1017.50 1017.38 1017.29 1017.22 1017.15 1017.06
1017.30 1017.74 1018.13 1018.47 1018.74 1018.96 1019.13 1019.28 1019.43 1019.57 1019.73 1019.90 1020.10 1020.30 1020.51 1020.71 1020.89 1021.02 1021.11 1021.13 1021.09 1021.00 1020.87 1020.71 1020.55 1020.39 1020.24 1020.11 1019.98 1019.84 1019.69 1019.52 1019.32 1019.11 1018.89 1018.69 1018.51 1018.36 1018.25 1018.17 1018.10 1018.02 1017.93
1017.19 1017.65 1018.09 1018.49 1018.85 1019.17 1019.46 1019.71 1019.94 1020.15 1020.35 1020.55 1020.74 1020.93 1021.10 1021.26 1021.38 1021.47 1021.51 1021.50 1021.45 1021.36 1021.25 1021.12 1021.00 1020.88 1020.78 1020.69 1020.59 1020.48 1020.35 1020.20 1020.02 1019.83 1019.63 1019.45 1019.29 1019.16 1019.05 1018.97 1018.89 1018.82 1018.73
1017.16 1017.61 1018.07 1018.53 1018.97 1019.39 1019.78 1020.13 1020.45 1020.74 1020.99 1021.22 1021.41 1021.58 1021.72 1021.83 1021.91 1021.94 1021.94 1021.90 1021.83 1021.73 1021.63 1021.53 1021.44 1021.36 1021.29 1021.22 1021.15 1021.07 1020.96 1020.83 1020.67 1020.50 1020.32 1020.16 1020.01 1019.88 1019.78 1019.69 1019.61 1019.53 1019.45
1017.20 1017.63 1018.10 1018.59 1019.10 1019.60 1020.08 1020.52 1020.93 1021.28 1021.59 1021.85 1022.06 1022.22 1022.34 1022.42 1022.45 1022.45 1022.41 1022.35 1022.26 1022.16 1022.06 1021.97 1021.89 1021.83 1021.79 1021.74 1021.69 1021.62 1021.53 1021.41 1021.27 1021.12 1020.96 1020.81 1020.67 1020.55 1020.44 1020.35 1020.26 1020.19 1020.11
1017.28 1017.68 1018.15 1018.66 1019.21 1019.77 1020.33 1020.85 1021.33 1021.74 1022.10 1022.39 1022.62 1022.79 1022.91 1022.98 1023.00 1022.98 1022.93 1022.85 1022.76 1022.66 1022.56 1022.47 1022.40 1022.35 1022.31 1022.27 1022.22 1022.16 1022.08 1021.97 1021.85 1021.71 1021.56 1021.42 1021.29 1021.18 1021.07 1020.98 1020.90 1020.83 1020.77
1017.37 1017.74 1018.20 1018.72 1019.30 1019.90 1020.50 1021.08 1021.60 1022.07 1022.46 1022.79 1023.05 1023.24 1023.38 1023.47 1023.51 1023.51 1023.47 1023.40 1023.31 1023.22 1023.13 1023.04 1022.97 1022.92 1022.87 1022.82 1022.77 1022.71 1022.63 1022.53 1022.41 1022.28 1022.15 1022.03 1021.91 1021.81 1021.72 1021.64 1021.57 1021.51 1021.46
1017.43 1017.79 1018.24 1018.76 1019.35 1019.97 1020.59 1021.19 1021.75 1022.24 1022.66 1023.02 1023.31 1023.54 1023.72 1023.85 1023.93 1023.97 1023.98 1023.95 1023.89 1023.82 1023.74 1023.67 1023.59 1023.53 1023.47 1023.42 1023.36 1023.29 1023.20 1023.10 1022.99 1022.87 1022.76 1022.65 1022.56 1022.47 1022.40 1022.35 1022.30 1022.26 1022.23
1017.43 1017.79 1018.24 1018.77 1019.35 1019.97 1020.59 1021.19 1021.75 1022.24 1022.68 1023.06 1023.38 1023.66 1023.89 1024.08 1024.23 1024.34 1024.41 1024.44 1024.43 1024.40 1024.35 1024.29 1024.23 1024.16 1024.10 1024.04 1023.97 1023.89 1023.81 1023.71 1023.60 1023.50 1023.40 1023.31 1023.23 1023.18 1023.14 1023.11 1023.09 1023.08 1023.06
1017.36 1017.75 1018.20 1018.73 1019.30 1019.90 1020.50 1021.07 1021.61 1022.09 1022.53 1022.92 1023.28 1023.60 1023.89 1024.15 1024.38 1024.57 1024.72 1024.82 1024.88 1024.90 1024.89 1024.86 1024.82 1024.77 1024.72 1024.66 1024.60 1024.52 1024.44 1024.35 1024.25 1024.15 1024.07 1024.00 1023.94 1023.91 1023.90 1023.90 1023.92 1023.93 1023.94
1017.21 1017.63 1018.11 1018.63 1019.19 1019.75 1020.32 1020.85 1021.36 1021.82 1022.24 1022.64 1023.02 1023.38 1023.73 1024.07 1024.37 1024.65 1024.88 1025.06 1025.19 1025.27 1025.31 1025.33 1025.33 1025.31 1025.28 1025.25 1025.20 1025.15 1025.08 1025.00 1024.92 1024.83 1024.76 1024.70 1024.67 1024.66 1024.67 1024.70 1024.74 1024.78 1024.81
1016.97 1017.43 1017.92 1018.45 1018.99 1019.53 1020.05 1020.55 1021.01 1021.44 1021.85 1022.25 1022.65 1023.05 1023.45 1023.85 1024.23 1024.58 1024.88 1025.14 1025.34 1025.49 1025.59 1025.66 1025.71 1025.74 1025.76 1025.76 1025.76 1025.74 1025.70 1025.65 1025.59 1025.52 1025.46 1025.41 1025.38 1025.38 1025.41 1025.45 1025.51 1025.57 1025.61
1016.61 1017.11 1017.63 1018.16 1018.69 1019.21 1019.70 1020.16 1020.59 1021.00 1021.40 1021.80 1022.21 1022.65 1023.09 1023.54 1023.98 1024.39 1024.76 1025.07 1025.34 1025.55 1025.71 1025.85 1025.95 1026.05 1026.13 1026.19 1026.24 1026.28 1026.28 1026.27 1026.23 1026.19 1026.14 1026.10 1026.07 1026.08 1026.10 1026.15 1026.21 1026.27 1026.32
1016.13 1016.67 1017.21 1017.75 1018.28 1018.79 1019.27 1019.71 1020.13 1020.53 1020.92 1021.33 1021.76 1022.22 1022.69 1023.18 1023.66 1024.11 1024.53 1024.89 1025.21 1025.47 1025.70 1025.89 1026.07 1026.23 1026.38 1026.52 1026.64 1026.74 1026.81 1026.84 1026.84 1026.83 1026.79 1026.76 1026.73 1026.73 1026.75 1026.79 1026.84 1026.90 1026.94
1015.53 1016.09 1016.65 1017.21 1017.75 1018.27 1018.76 1019.21 1019.63 1020.04 1020.45 1020.87 1021.32 1021.80 1022.29 1022.80 1023.30 1023.78 1024.23 1024.63 1024.98 1025.29 1025.57 1025.83 1026.07 1026.31 1026.53 1026.75 1026.95 1027.12 1027.26 1027.35 1027.40 1027.41 1027.40 1027.38 1027.36 1027.34 1027.35 1027.38 1027.42 1027.46 1027.50
1014.83 1015.39 1015.97 1016.55 1017.12 1017.67 1018.19 1018.67 1019.13 1019.57 1020.00 1020.45 1020.91 1021.40 1021.90 1022.42 1022.93 1023.42 1023.88 1024.30 1024.69 1025.04 1025.37 1025.68 1025.99 1026.30 1026.60 1026.89 1027.17 1027.41 1027.62 1027.77 1027.88 1027.94 1027.96 1027.96 1027.94 1027.93 1027.93 1027.94 1027.97 1028.00 1028.03
1014.08 1014.63 1015.22 1015.82 1016.43 1017.02 1017.59 1018.12 1018.63 1019.11 1019.59 1020.06 1020.54 1021.03 1021.53 1022.04 1022.54 1023.03 1023.50 1023.94 1024.35 1024.74 1025.11 1025.48 1025.85 1026.22 1026.59 1026.95 1027.29 1027.61 1027.88 1028.10 1028.27 1028.38 1028.44 1028.47 1028.48 1028.48 1028.48 1028.49 1028.51 1028.53 1028.55
1013.33 1013.86 1014.45 1015.07 1015.72 1016.36 1016.99 1017.58 1018.15 1018.68 1019.19 1019.69 1020.17 1020.66 1021.15 1021.65 1022.14 1022.62 1023.09 1023.55 1023.99 1024.41 1024.83 1025.25 1025.67 1026.09 1026.51 1026.93 1027.33 1027.70 1028.03 1028.31 1028.54 1028.71 1028.82 1028.90 1028.94 1028.97 1028.99 1029.00 1029.02 1029.05 1029.08
1012.65 1013.15 1013.73 1014.36 1015.04 1015.73 1016.41 1017.07 1017.68 1018.27 1018.81 1019.31 1019.80 1020.28 1020.75 1021.23 1021.70 1022.18 1022.66 1023.13 1023.59 1024.06 1024.52 1024.98 1025.44 1025.91 1026.37 1026.82 1027.26 1027.67 1028.05 1028.38 1028.66 1028.89 1029.07 1029.20 1029.29 1029.35 1029.40 1029.44 1029.48 1029.52 1029.55
1012.07 1012.52 1013.08 1013.71 1014.41 1015.13 1015.85 1016.55 1017.22 1017.83 1018.39 1018.91 1019.40 1019.86 1020.31 1020.77 1021.23 1021.70 1022.19 1022.68 1023.18 1023.68 1024.18 1024.68 1025.17 1025.66 1026.15 1026.62 1027.07 1027.51 1027.91 1028.28 1028.61 1028.89 1029.13 1029.32 1029.47 1029.59 1029.68 1029.75 1029.82 1029.87 1029.93
1011.58 1011.99 1012.51 1013.13 1013.82 1014.55 1015.30 1016.03 1016.72 1017.35 1017.93 1018.45 1018.93 1019.38 1019.81 1020.25 1020.71 1021.19 1021.68 1022.20 1022.73 1023.27 1023.80 1024.33 1024.84 1025.34 1025.83 1026.30 1026.75 1027.19 1027.61 1028.00 1028.36 1028.70 1028.99 1029.24 1029.45 1029.63 1029.77 1029.88 1029.98 1030.07 1030.15
1011.13 1011.49 1011.97 1012.56 1013.23 1013.95 1014.70 1015.44 1016.14 1016.79 1017.37 1017.90 1018.37 1018.82 1019.25 1019.69 1020.15 1020.64 1021.16 1021.70 1022.26 1022.83 1023.38 1023.92 1024.44 1024.93 1025.40 1025.85 1026.29 1026.71 1027.12 1027.53 1027.92 1028.29 1028.64 1028.95 1029.22 1029.45 1029.65 1029.81 1029.94 1030.06 1030.17
1010.65 1010.97 1011.41 1011.96 1012.59 1013.29 1014.03 1014.76 1015.46 1016.12 1016.71 1017.25 1017.74 1018.20 1018.64 1019.10 1019.57 1020.08 1020.62 1021.19 1021.77 1022.35 1022.92 1023.46 1023.96 1024.43 1024.87 1025.29 1025.69 1026.09 1026.49 1026.90 1027.30 1027.71 1028.10 1028.47 1028.79 1029.09 1029.33 1029.54 1029.71 1029.87 1030.00
1010.06 1010.35 1010.76 1011.27 1011.86 1012.53 1013.24 1013.96 1014.67 1015.34 1015.95 1016.52 1017.04 1017.53 1018.01 1018.49 1019.00 1019.53 1020.10 1020.68 1021.27 1021.86 1022.41 1022.94 1023.41 1023.85 1024.24 1024.62 1024.98 1025.35 1025.74 1026.14 1026.56 1026.99 1027.42 1027.83 1028.22 1028.56 1028.86 1029.11 1029.33 1029.51 1029.68
1009.31 1009.60 1009.98 1010.46 1011.02 1011.66 1012.35 1013.06 1013.78 1014.47 1015.12 1015.74 1016.31 1016.85 1017.38 1017.91 1018.45 1019.02 1019.60 1020.19 1020.78 1021.35 1021.88 1022.37 1022.81 1023.20 1023.56 1023.89 1024.22 1024.56 1024.92 1025.32 1025.75 1026.21 1026.67 1027.13 1027.56 1027.95 1028.30 1028.59 1028.84 1029.06 1029.26
1008.40 1008.71 1009.09 1009.56 1010.10 1010.72 1011.40 1012.12 1012.85 1013.58 1014.28 1014.95 1015.59 1016.19 1016.79 1017.37 1017.95 1018.54 1019.14 1019.72 1020.30 1020.84 1021.34 1021.79 1022.19 1022.54 1022.85 1023.15 1023.44 1023.76 1024.12 1024.52 1024.96 1025.43 1025.92 1026.41 1026.87 1027.30 1027.69 1028.02 1028.31 1028.56 1028.79
Thickness
5726 5724 5723 5722 5721 5722 5722 5722 5722 5722 5722 5722 5722 5722 5722 5720 5718 5716 5715 5714 5714 5714 5714 5714 5714 5713 5713 5713 5713 5714 5714 5715 5715 5716 5717 5717 5718 5719 5719 5719 5720 5720 5722
5722 5720 5718 5717 5716 5717 5717 5717 5717 5716 5715 5715 5715 5715 5715 5714 5713 5711 5709 5708 5707 5707 5707 5707 5707 5707 5707 5707 5707 5707 5708 5708 5709 5710 5711 5712 5712 5713 5715 5715 5715 5716 5717
5718 5716 5713 5712 5712 5712 5712 5711 5711 5711 5710 5710 5709 5709 5708 5707 5707 5706 5704 5702 5701 5701 5700 5700 5700 5700 5700 5700 5701 5701 5701 5702 5702 5703 5704 5705 5706 5708 5710 5711 5711 5711 5712
5713 5711 5709 5708 5707 5707 5706 5705 5704 5703 5702 5702 5701 5702 5702 5701 5701 5700 5699 5698 5696 5695 5694 5693 5693 5693 5693 5693 5694 5694 5695 5696 5696 5697 5698 5699 5700 5702 5703 5705 5705 5706 5707
5708 5706 5704 5703 5703 5701 5700 5700 5698 5697 5695 5695 5695 5696 5696 5695 5694 5694 5693 5692 5691 5689 5688 5687 5687 5686 5686 5686 5687 5687 5688 5689 5690 5691 5691 5692 5694 5695 5696 5698 5699 5700 5701
5702 5700 5699 5698 5697 5695 5694 5693 5692 5692 5691 5690 5691 5690 5689 5689 5689 5687 5687 5686 5684 5683 5683 5682 5681 5680 5680 5680 5680 5680 5681 5682 5683 5684 5685 5686 5687 5689 5690 5691 5693 5695 5696
5696 5694 5693 5692 5691 5689 5687 5687 5686 5685 5684 5685 5682 5680 5681 5683 5682 5681 5681 5679 5678 5677 5677 5676 5675 5675 5674 5673 5673 5674 5674 5675 5677 5678 5679 5679 5681 5682 5683 5685 5687 5688 5690
5690 5689 5688 5686 5685 5683 5682 5681 5680 5678 5677 5679 5675 5670 5668 5669 5672 5676 5674 5673 5672 5672 5671 5671 5670 5669 5668 5667 5666 5667 5667 5668 5670 5671 5672 5673 5674 5676 5677 5679 5680 5682 5684
5684 5683 5682 5681 5680 5678 5676 5675 5674 5672 5669 5671 5671 5666 5660 5656 5660 5664 5667 5667 5666 5665 5665 5665 5664 5663 5662 5661 5660 5660 5660 5661 5662 5664 5665 5666 5668 5669 5671 5673 5675 5676 5677
5678 5677 5677 5676 5674 5673 5671 5670 5669 5667 5665 5662 5663 5664 5662 5659 5653 5651 5656 5659 5660 5659 5659 5659 5658 5657 5656 5654 5654 5653 5654 5654 5655 5656 5658 5659 5661 5663 5665 5666 5668 5670 5671
5672 5671 5671 5670 5668 5667 5665 5665 5664 5662 5660 5658 5656 5656 5655 5655 5654 5647 5644 5647 5650 5652 5653 5652 5652 5651 5650 5649 5648 5647 5647 5648 5648 5649 5650 5652 5653 5655 5657 5659 5661 5663 5665
5666 5665 5665 5664 5662 5661 5660 5659 5658 5656 5655 5654 5652 5650 5648 5646 5645 5643 5640 5641 5641 5643 5646 5646 5646 5645 5644 5643 5642 5642 5641 5641 5642 5643 5643 5644 5646 5648 5650 5652 5654 5656 5658
5659 5659 5658 5657 5656 5655 5654 5653 5652 5650 5649 5648 5646 5645 5644 5643 5642 5640 5637 5636 5636 5637 5639 5639 5640 5639 5638 5637 5636 5636 5636 5636 5636 5637 5637 5638 5639 5640 5642 5644 5646 5649 5651
5655 5654 5653 5652 5650 5649 5648 5647 5645 5644 5643 5642 5641 5640 5638 5637 5637 5636 5632 5630 5628 5628 5629 5630 5633 5632 5632 5631 5630 5630 5629 5630 5630 5630 5630 5631 5632 5633 5635 5637 5639 5641 5643
5651 5649 5647 5646 5645 5643 5642 5640 5638 5637 5636 5635 5634 5633 5632 5631 5631 5630 5629 5626 5622 5619 5619 5623 5624 5625 5625 5624 5623 5623 5622 5623 5623 5623 5623 5624 5624 5626 5627 5629 5631 5632 5635
5645 5644 5642 5641 5639 5638 5636 5634 5632 5631 5630 5628 5627 5626 5625 5625 5624 5624 5623 5621 5620 5617 5613 5616 5616 5618 5617 5617 5616 5615 5615 5615 5616 5616 5616 5616 5617 5618 5619 5620 5622 5624 5626
5640 5638 5636 5635 5633 5632 5630 5628 5626 5625 5623 5622 5621 5620 5618 5618 5617 5617 5616 5614 5612 5611 5607 5608 5609 5609 5609 5608 5608 5608 5608 5608 5608 5608 5609 5609 5609 5610 5611 5612 5614 5616 5618
5634 5633 5631 5628 5627 5625 5624 5622 5620 5618 5616 5615 5614 5613 5612 5612 5610 5609 5608 5606 5605 5604 5601 5598 5599 5600 5600 5600 5600 5599 5600 5600 5600 5600 5601 5601 5601 5602 5602 5604 5606 5607 5609
5628 5626 5625 5622 5620 5619 5617 5616 5614 5612 5610 5608 5607 5606 5605 5604 5602 5601 5600 5599 5598 5597 5595 5592 5590 5591 5591 5591 5591 5591 5592 5592 5593 5593 5593 5593 5593 5594 5595 5596 5597 5599 5600
5621 5619 5618 5616 5615 5613 5611 5609 5607 5605 5603 5602 5600 5599 5598 5596 5594 5593 5593 5592 5591 5589 5587 5584 5582 5581 5581 5582 5582 5582 5582 5583 5584 5585 5585 5585 5586 5586 5587 5588 5590 5591 5592
5615 5613 5612 5610 5608 5606 5604 5602 5600 5599 5596 5595 5593 5592 5591 5590 5589 5587 5586 5584 5582 5580 5578 5576 5574 5573 5572 5572 5572 5573 5573 5574 5575 5576 5576 5577 5578 5578 5578 5580 5581 5583 5584
5608 5607 5605 5603 5601 5600 5598 5596 5594 5592 5590 5588 5586 5585 5584 5583 5582 5580 5578 5577 5575 5572 5569 5567 5565 5564 5563 5563 5564 5565 5565 5565 5565 5568 5569 5569 5571 5571 5572 5573 5574 5575 5576
5601 5599 5598 5597 5594 5592 5591 5589 5588 5586 5584 5583 5581 5579 5578 5576 5573 5571 5569 5569 5567 5566 5564 5562 5558 5556 5556 5557 5557 5557 5557 5558 5558 5561 5561 5562 5564 5564 5565 5566 5567 5568 5569
5595 5592 5591 5590 5588 5586 5585 5583 5581 5579 5577 5576 5574 5572 5569 5567 5565 5563 5561 5559 5557 5555 5555 5554 5553 5552 5552 5551 5551 5551 5551 5552 5553 5554 5554 5553 5556 5557 5560 5560 5561 5561 5562
5589 5587 5585 5583 5581 5579 5579 5577 5575 5572 5570 5569 5567 5565 5562 5559 5558 5557 5554 5550 5548 5546 5546 5545 5545 5545 5545 5545 5545 5544 5544 5543 5544 5545 5547 5546 5548 5550 5552 5553 5554 5555 5556
5583 5582 5579 5578 5576 5574 5572 5570 5568 5565 5563 5561 5559 5557 5555 5553 5550 5548 5545 5542 5539 5538 5538 5537 5536 5537 5537 5537 5537 5537 5536 5536 5536 5537 5539 5539 5540 5541 5542 5546 5547 5548 5549